Wind_Speed
89 90 91 92 92 93 94 95 95 96 96 97 98 98 99 99 99 100 100 100 100 100 100 100 101 101 101 101 101 101 101 101 101 101 101 101 101 101 101 101 101 101 101 101 100 100 100 100 100 100 100 100 100 100 100 100 101 101 101 102 102 102 102 101 101 100 99 99 99 99 99 98 98 98 98 98 98 98 97 97 97 97 96 96 96 96
91 91 92 93 93 94 95 96 96 96 97 97 98 98 99 99 100 100 100 101 101 101 101 101 101 101 102 102 102 102 102 101 101 101 101 102 102 102 102 102 102 102 102 101 101 101 101 101 100 100 100 100 100 100 100 100 100 100 100 100 100 99 99 98 97 97 96 96 95 95 95 95 94 94 94 94 94 94 94 94 94 93 93 93 93 93
91 92 93 93 94 95 95 96 96 97 97 97 98 98 99 99 100 100 100 101 101 101 101 102 102 102 102 102 102 102 102 102 102 102 102 103 103 103 103 103 103 103 102 102 102 102 101 101 100 100 100 99 99 99 98 98 98 98 98 97 97 96 95 94 93 92 92 92 91 91 91 90 90 90 90 90 90 90 90 90 90 90 90 90 89 89
92 93 93 94 94 95 96 96 97 97 97 97 98 98 98 99 99 100 100 101 101 102 102 102 102 102 103 103 103 103 103 103 103 103 103 104 104 104 104 104 104 104 103 103 102 102 101 101 100 100 99 98 97 97 96 96 96 95 95 94 93 92 91 90 89 88 88 87 87 87 87 86 86 86 86 86 86 86 86 86 86 86 86 86 86 85
93 93 94 94 95 95 96 97 97 97 97 97 97 98 98 99 99 100 100 101 101 102 102 103 103 103 103 104 104 104 104 104 104 104 105 105 105 105 105 105 105 104 104 103 102 102 101 100 99 98 97 96 95 94 93 93 93 92 92 91 90 88 87 86 85 84 84 83 83 83 83 82 82 82 82 82 82 82 82 82 82 82 82 82 81 81
93 94 94 94 95 96 96 97 97 97 97 97 98 98 98 99 99 99 100 101 101 102 102 103 103 104 104 104 105 105 105 105 105 106 106 106 107 107 106 106 105 105 104 103 102 101 100 98 97 96 94 93 92 91 91 90 90 89 88 87 86 84 83 81 81 80 80 80 79 79 79 78 78 78 78 78 77 77 77 77 77 77 77 77 77 76
94 94 95 95 95 96 96 97 97 97 97 98 98 98 98 99 99 99 100 100 101 102 103 103 104 104 105 105 106 106 106 106 106 107 107 108 108 107 107 106 105 104 103 102 101 99 98 96 95 93 92 90 89 89 88 88 87 87 85 84 82 80 79 78 77 77 77 76 76 75 75 75 74 74 74 73 73 73 72 72 72 72 72 72 72 71
94 95 95 95 96 96 97 97 98 98 98 98 98 98 99 99 99 99 100 101 101 102 103 104 104 105 106 106 107 107 107 107 108 108 108 108 108 108 107 106 105 103 102 101 99 97 95 94 92 90 89 88 87 87 86 86 85 84 82 81 79 77 76 75 74 74 73 73 72 72 72 71 71 70 70 69 69 68 68 67 67 67 67 67 67 67
95 95 96 96 96 97 97 98 98 98 98 98 98 99 99 99 100 100 100 101 102 102 103 104 105 106 107 108 108 109 109 109 109 109 109 109 108 107 106 105 103 102 100 99 97 95 93 91 89 88 86 86 85 85 84 84 83 81 80 78 76 74 73 72 72 71 71 70 69 69 68 68 67 67 66 65 65 64 64 63 63 63 63 63 63 63
96 96 96 97 97 97 97 98 99 99 99 99 99 99 99 100 100 101 101 102 103 103 104 104 106 107 108 109 109 110 109 109 109 109 109 108 107 106 105 103 101 100 98 97 95 93 90 88 86 85 84 83 83 83 82 81 80 79 77 75 73 72 71 70 69 69 68 67 67 66 65 65 64 63 63 62 61 61 61 60 60 60 60 60 60 60
97 97 97 97 97 98 98 98 99 99 100 100 100 100 100 100 101 102 103 104 104 104 105 105 107 108 109 110 110 110 109 109 109 108 108 107 106 104 103 101 99 98 96 94 92 90 88 86 84 83 82 81 81 80 80 79 78 76 74 72 70 69 68 67 67 66 65 65 64 64 63 62 61 61 60 59 59 58 58 58 58 58 58 58 58 58
97 97 97 98 98 98 99 99 100 100 101 101 102 102 102 102 102 103 104 105 106 106 106 107 108 108 109 110 110 110 109 108 107 107 106 105 104 102 101 99 97 95 94 92 90 87 85 83 82 81 80 79 78 78 77 76 75 73 71 69 68 66 65 65 64 64 63 62 62 61 60 59 59 58 57 57 57 56 56 56 56 56 56 56 56 56
98 98 98 98 98 99 100 100 101 101 102 102 103 103 104 104 104 104 105 106 106 107 107 108 108 109 109 109 109 108 107 106 105 105 104 103 102 100 98 96 95 93 91 89 87 85 83 81 80 79 78 77 76 75 75 73 72 70 68 66 65 64 63 62 62 62 61 60 59 59 58 57 56 56 55 55 55 54 54 54 54 53 54 53 53 54
99 99 99 99 99 100 101 101 102 102 103 103 104 104 105 105 105 106 107 107 107 107 108 108 108 108 108 107 107 106 105 104 103 103 102 101 100 98 96 94 92 90 88 86 84 82 80 79 77 76 75 74 74 73 72 71 69 67 65 64 62 61 61 60 60 60 59 58 57 56 56 55 54 54 54 53 53 53 52 52 52 52 52 51 51 52
99 99 100 100 101 101 102 102 103 104 104 104 105 105 105 106 107 107 108 108 108 108 107 107 107 107 106 105 104 103 103 102 101 101 100 99 97 95 93 91 89 87 85 83 81 79 77 76 75 73 72 72 71 71 69 68 66 64 63 61 60 59 59 58 58 58 57 56 55 54 54 53 52 52 52 51 51 51 50 50 50 50 49 49 49 49
100 100 100 101 102 102 103 103 104 105 105 105 105 106 106 107 108 108 108 108 108 108 107 106 106 105 104 103 102 101 100 100 99 98 98 97 94 92 90 88 86 84 82 80 78 76 75 73 72 70 70 69 69 68 67 65 63 62 60 59 58 57 57 57 56 56 55 54 53 52 52 51 51 50 50 49 49 49 49 48 48 48 48 47 47 47
100 101 101 102 103 103 103 104 105 105 106 106 106 106 107 108 108 108 108 108 107 106 105 104 103 103 102 101 100 98 97 97 97 96 95 94 92 89 87 85 83 81 79 77 75 73 72 70 69 68 67 67 66 65 64 62 61 60 58 57 56 56 55 55 54 54 53 52 51 50 50 49 49 48 48 48 47 47 47 46 46 46 46 45 45 45
101 101 102 103 103 104 104 105 105 106 106 106 106 107 107 108 108 108 107 106 105 104 103 102 101 100 100 100 99 97 95 95 94 93 92 90 88 86 84 82 79 77 75 74 72 70 69 67 66 65 65 64 64 63 61 60 59 57 56 55 55 54 54 53 53 52 51 50 49 49 48 48 47 47 46 46 46 45 45 45 44 44 44 44 44 43
102 102 103 103 104 104 105 105 106 106 106 107 107 107 107 107 107 106 105 104 103 102 101 100 99 99 98 98 97 94 92 91 91 90 88 87 85 83 80 78 76 74 72 71 69 68 66 64 63 63 62 62 61 60 59 58 57 55 54 54 53 53 52 52 51 50 49 48 48 47 46 46 45 45 45 44 44 44 43 43 43 42 42 42 42 42
102 103 103 104 104 105 105 106 106 106 107 107 107 107 107 106 105 104 103 102 101 100 99 98 98 97 96 95 94 92 90 88 87 86 84 83 82 80 77 75 73 71 70 68 67 65 63 62 61 60 60 60 59 58 57 56 55 54 53 52 51 51 50 50 49 48 48 47 46 45 45 44 44 44 43 43 42 42 42 41 41 41 41 41 41 41
103 104 104 104 104 105 106 106 107 107 107 107 106 106 105 104 103 101 100 99 98 98 97 96 95 94 93 92 91 89 87 85 84 83 81 80 79 77 74 72 70 69 67 66 64 63 61 60 59 58 58 58 57 56 55 54 53 52 51 51 50 50 49 48 48 47 46 45 44 44 43 43 42 42 42 41 41 41 40 40 40 40 40 40 39 39
104 104 105 105 105 106 107 107 108 108 107 106 105 104 103 101 100 99 98 97 97 96 95 94 93 92 90 89 88 86 84 82 81 79 78 77 76 73 71 69 67 66 65 64 62 60 59 57 56 56 56 56 55 55 53 52 51 50 50 49 49 48 47 47 46 45 44 44 43 42 42 41 41 41 40 40 40 40 39 39 39 39 39 39 38 38
105 105 105 106 106 107 107 108 108 108 107 105 104 102 101 99 98 97 97 96 95 94 93 91 90 89 87 86 84 83 80 79 77 76 75 74 73 71 68 66 65 64 63 62 60 58 57 55 54 54 54 54 54 53 52 50 49 49 48 48 47 46 46 45 44 44 43 42 41 41 41 40 40 40 39 39 39 38 38 38 38 38 38 38 37 37
106 106 107 107 108 108 109 109 108 107 106 104 102 101 99 97 96 96 95 94 93 92 90 89 87 86 84 82 81 79 77 75 74 73 72 71 70 67 66 64 63 62 61 60 58 57 55 54 53 52 52 52 52 51 50 49 48 47 47 46 46 45 44 44 43 42 41 41 40 40 39 39 39 38 38 38 38 37 37 37 37 37 37 37 36 36
107 108 108 109 109 109 109 108 107 106 104 103 101 99 98 96 95 94 93 91 90 89 87 86 84 83 81 80 78 77 75 73 71 70 69 68 66 65 63 62 61 60 59 58 57 55 53 52 51 51 51 51 50 50 48 47 46 46 45 45 44 43 43 42 42 41 40 39 39 38 38 38 38 37 37 37 37 36 36 36 36 36 36 36 35 35
109 109 109 110 109 109 108 106 105 103 102 100 99 98 96 95 93 92 91 89 88 87 85 83 82 80 79 77 76 75 73 71 69 68 67 65 64 62 61 59 58 58 57 56 55 53 52 50 49 49 49 50 49 48 47 46 45 44 44 43 43 42 41 41 40 39 39 38 38 37 37 37 36 36 36 36 35 35 35 35 35 35 35 35 34 34
110 110 110 110 109 107 105 104 102 101 99 98 97 96 94 93 91 90 88 86 85 84 83 81 80 78 76 75 74 73 71 69 67 65 64 63 61 60 58 57 56 56 55 55 54 52 50 48 47 47 48 48 48 47 45 44 43 43 42 42 41 40 40 39 39 38 38 37 36 36 36 36 35 35 35 34 34 34 34 34 34 34 33 33 33 33
111 111 110 109 107 105 103 101 100 98 97 96 95 94 92 91 89 87 86 84 82 81 80 79 77 76 75 73 72 70 69 67 65 64 62 60 59 58 57 55 55 54 54 54 52 51 48 46 45 46 46 47 46 45 44 43 42 41 40 40 39 39 38 38 37 37 37 36 35 35 35 34 34 34 33 33 33 33 33 33 33 32 32 32 31 31
110 110 109 107 105 103 101 99 98 97 96 94 93 92 90 88 87 85 83 81 80 79 78 76 75 74 73 72 70 68 67 65 63 62 60 59 58 56 55 54 53 52 52 52 51 49 47 44 43 43 45 45 45 44 43 42 40 39 39 38 38 37 37 36 36 36 35 35 34 34 34 33 33 32 32 32 31 31 31 31 31 31 31 30 30 30
109 108 106 104 102 101 99 98 97 95 94 92 91 89 87 85 84 82 80 78 77 76 75 74 73 72 71 69 68 66 65 63 61 60 59 57 56 55 53 52 51 50 50 50 50 48 46 43 41 41 42 43 44 43 42 41 39 38 37 37 36 36 35 35 35 35 34 34 33 33 32 32 31 31 31 30 30 30 30 30 30 30 30 29 29 28
106 105 103 101 100 98 97 96 95 94 92 90 88 86 85 83 81 79 78 76 75 74 73 72 71 70 68 67 66 65 63 61 59 58 57 56 55 53 52 51 49 49 48 48 48 47 45 42 40 40 40 41 42 42 41 40 38 37 36 35 35 34 34 34 34 34 33 33 32 32 31 31 30 30 29 29 29 29 29 29 29 29 28 28 27 27
103 101 100 99 97 96 95 94 93 91 89 88 86 84 82 80 78 77 75 74 73 72 71 69 68 67 66 65 64 62 61 59 57 56 55 54 53 52 50 49 48 47 47 46 46 45 44 42 40 39 38 39 40 40 39 38 37 36 35 34 33 33 32 32 32 32 32 32 31 31 30 29 29 28 28 27 27 27 27 28 28 28 27 26 26 25
100 99 97 96 95 94 93 92 90 88 86 85 83 81 79 78 76 75 73 72 71 70 69 68 66 65 64 63 62 60 59 57 55 54 53 52 51 50 49 48 46 46 45 45 44 43 42 41 39 38 37 37 38 38 38 37 36 35 34 33 32 32 31 31 31 31 31 31 30 30 29 28 28 27 26 26 25 25 26 27 27 26 26 25 24 24
98 97 96 95 93 92 90 89 87 85 83 82 80 78 77 75 74 73 72 70 69 68 67 66 65 64 63 61 60 58 56 55 53 52 51 50 50 48 47 46 45 44 44 43 42 41 40 39 38 37 36 36 36 36 36 35 35 34 33 32 31 31 30 30 30 30 30 30 29 29 28 27 26 26 25 24 23 24 25 25 26 25 24 24 23 22
96 95 94 93 91 89 88 86 84 82 80 79 77 76 74 73 72 71 70 69 68 66 65 64 63 62 61 59 58 56 54 53 51 50 50 49 48 47 45 44 43 43 43 42 41 40 39 38 37 36 35 35 35 34 34 33 33 33 32 31 31 30 29 29 29 29 29 28 28 28 27 26 26 24 23 22 22 22 23 25 25 24 23 22 21 21
94 93 92 90 88 87 85 83 81 79 78 76 75 73 72 71 70 69 68 67 66 65 64 63 61 60 59 58 56 54 53 51 50 49 48 47 46 45 44 43 42 42 41 41 40 39 37 36 36 35 34 34 33 33 32 32 32 31 31 31 30 29 28 28 27 27 27 27 27 26 26 26 25 23 22 21 20 21 23 24 24 23 22 21 20 19
92 91 89 88 86 84 82 80 78 77 75 74 73 71 70 69 68 67 67 66 64 63 62 61 60 58 57 56 54 53 51 50 49 48 46 45 44 43 42 41 41 41 40 40 39 38 36 35 34 33 33 33 32 32 31 31 30 30 30 30 29 28 28 27 26 26 25 25 25 25 25 25 24 23 21 19 19 20 22 23 23 22 20 19 19 18
90 89 87 85 83 81 80 78 76 75 73 72 71 69 68 67 67 66 65 64 63 62 61 59 58 57 55 54 52 51 50 48 47 46 45 44 42 41 40 40 39 39 39 38 38 37 35 34 33 32 32 31 31 31 30 30 29 29 29 29 28 28 27 26 25 24 24 23 23 23 24 24 23 22 20 19 19 20 22 22 22 20 19 18 17 17
88 87 85 83 81 79 77 76 74 72 71 70 69 68 67 66 65 64 63 62 61 60 59 57 56 55 53 52 51 49 48 47 46 45 43 42 41 40 39 39 38 38 38 37 36 35 34 33 31 30 30 30 30 30 29 29 28 28 27 27 27 27 26 26 25 24 23 22 22 22 22 22 22 20 19 18 19 20 21 21 20 18 17 17 16 16
86 84 83 81 79 77 75 73 72 70 69 68 67 66 65 64 63 62 61 60 59 58 57 55 54 53 51 50 49 48 47 46 44 43 41 40 39 38 37 37 37 37 36 36 35 34 33 32 30 29 29 28 28 28 28 28 27 26 26 26 25 25 25 25 24 23 22 21 20 20 21 21 20 19 18 18 19 20 21 20 18 17 16 16 15 15
84 82 81 79 77 75 73 71 70 68 67 66 65 64 63 62 61 60 59 58 56 55 54 53 52 51 49 48 47 46 45 44 43 41 40 38 37 37 36 36 36 35 35 35 34 33 32 31 29 28 28 27 27 27 27 26 26 25 25 24 24 24 24 24 24 23 22 20 20 19 19 19 18 18 17 18 19 20 20 18 17 15 15 15 15 15
82 80 78 77 75 73 71 69 68 66 65 64 63 62 61 60 59 58 57 55 54 53 52 51 49 48 47 46 45 44 44 42 41 40 38 37 36 35 35 35 34 34 34 33 33 32 31 30 29 28 27 26 25 25 25 25 24 24 24 23 22 22 22 23 23 22 21 20 19 18 18 18 17 17 17 18 19 19 18 16 15 14 14 14 14 14
80 78 76 74 72 71 69 67 66 64 63 62 61 60 59 58 56 55 54 53 52 51 49 48 47 46 45 44 43 43 42 41 39 38 37 36 35 34 34 33 33 33 32 32 32 31 31 29 28 27 26 25 24 24 23 23 23 23 22 22 21 21 21 21 22 21 21 19 18 17 17 16 16 16 17 18 19 18 17 15 14 13 13 13 13 13
77 76 74 72 70 68 67 65 64 63 62 61 59 58 57 55 54 53 52 51 50 48 47 46 45 44 43 42 42 41 40 39 38 37 36 35 34 33 32 32 32 31 31 31 30 30 30 29 28 27 25 24 23 23 22 22 22 21 21 21 20 20 20 20 20 20 20 19 17 16 16 15 15 16 17 18 18 17 15 13 13 12 12 12 12 13
75 74 72 70 68 66 65 63 62 61 60 59 58 56 55 53 52 51 50 49 48 46 45 44 43 42 41 40 40 39 38 37 36 36 35 34 33 32 31 31 30 30 30 29 29 29 28 28 27 26 25 24 23 22 21 20 20 20 20 20 19 19 19 19 19 19 18 17 16 15 15 14 15 16 17 18 17 15 14 12 12 11 12 12 12 12
73 71 69 68 66 64 63 62 61 60 58 57 56 54 53 52 50 49 48 47 46 44 43 42 41 40 39 39 38 37 36 36 35 34 34 33 32 31 30 30 29 29 28 28 28 28 27 27 26 25 24 23 22 21 20 19 19 19 19 19 18 18 18 18 18 17 17 16 15 14 14 14 15 16 17 17 16 14 12 11 11 11 11 12 12 12
71 69 67 66 64 62 61 60 59 58 57 55 54 53 51 50 49 47 46 45 44 42 41 40 39 39 38 37 36 35 35 34 34 33 33 32 31 30 29 29 28 28 27 27 27 27 26 26 25 24 23 22 21 20 20 19 18 18 18 18 18 17 17 17 17 16 16 15 14 14 14 14 15 17 17 16 14 13 11 11 11 11 11 12 12 11
69 67 66 64 62 61 60 59 58 57 55 54 52 51 49 48 47 46 44 43 42 41 40 39 38 37 36 35 35 34 33 33 32 32 32 31 30 29 29 28 27 27 26 26 26 26 25 25 24 23 23 22 20 20 19 18 18 18 17 17 17 17 16 16 15 15 14 14 13 13 13 14 16 17 16 15 13 12 11 10 11 11 11 11 11 10
67 66 64 62 61 60 59 58 56 55 54 52 51 49 48 47 45 44 43 41 40 39 38 37 36 36 35 34 33 33 32 32 31 31 30 30 29 28 28 27 26 26 25 25 25 24 24 24 24 23 22 21 20 19 19 18 18 17 17 17 16 16 15 15 14 14 13 13 13 13 14 15 16 16 15 14 12 11 10 10 11 11 11 10 10 9
66 64 62 61 60 58 57 56 55 54 52 51 49 48 46 45 44 42 41 40 39 38 37 36 35 34 33 33 32 32 31 31 30 30 29 28 28 27 27 26 25 25 24 24 23 23 23 23 23 22 21 20 20 19 18 18 18 17 17 16 16 15 15 14 13 13 12 12 12 13 14 15 16 15 14 12 11 10 10 10 10 10 10 9 9 8
64 62 61 59 58 57 56 55 53 52 51 49 48 46 45 44 42 41 40 38 37 36 35 34 34 33 32 32 31 30 30 29 29 28 28 27 27 26 25 25 25 24 23 23 23 22 22 21 21 21 21 20 19 19 18 18 17 17 16 16 15 14 14 13 12 11 11 11 12 13 14 15 15 14 13 11 10 10 9 9 9 9 9 8 8 8
Wind_Direction
303 303 303 303 302 302 302 302 302 302 302 302 302 302 302 302 302 302 301 301 301 300 300 300 299 299 299 299 298 298 298 298 298 298 298 297 297 297 296 296 296 295 295 294 294 294 293 293 293 292 292 291 291 290 290 289 289 288 287 287 286 285 285 284 284 284 283 283 283 282 282 281 280 280 279 279 278 278 278 277 277 276 276 275 275 274
303 303 303 303 303 303 303 303 303 303 302 302 302 302 302 302 301 301 301 301 301 300 300 300 300 299 299 299 299 299 299 299 299 299 298 298 298 297 297 296 296 296 295 295 294 294 294 293 293 293 292 292 291 291 290 290 289 288 288 287 286 286 285 285 284 284 284 283 283 282 282 281 280 280 279 279 278 278 278 277 277 276 276 275 275 274
303 303 303 303 303 303 303 303 303 302 302 302 302 302 301 301 301 301 301 301 301 300 300 300 300 300 300 300 300 300 300 299 299 299 299 298 298 298 297 297 296 296 295 295 295 294 294 294 293 293 293 292 292 291 291 290 290 289 288 287 286 286 285 285 285 285 284 284 283 282 282 281 280 280 279 279 278 278 277 277 276 276 276 275 275 274
303 303 303 303 303 303 302 302 302 302 302 302 301 301 301 301 301 301 301 301 301 300 300 300 300 300 300 300 300 300 300 300 300 299 299 299 298 298 297 297 297 296 296 295 295 295 295 294 294 294 293 293 293 292 292 291 290 289 288 287 287 286 286 286 285 285 285 284 283 282 282 281 281 280 280 279 278 278 277 277 276 276 276 275 275 274
303 303 303 303 303 302 302 302 302 301 301 301 301 301 301 301 300 301 301 301 301 301 301 301 301 301 301 300 300 300 300 300 300 300 299 299 298 298 298 297 297 297 296 296 296 296 295 295 295 295 294 294 294 293 293 292 291 290 289 288 287 287 287 287 286 286 285 284 283 283 282 281 281 280 280 279 278 278 277 277 276 276 276 275 275 275
303 303 303 303 302 302 302 302 301 301 301 301 301 301 300 300 300 301 301 301 301 301 301 301 301 301 301 301 301 301 301 300 300 300 299 299 299 298 298 298 297 297 297 297 297 296 296 296 296 296 295 295 295 294 293 292 291 290 289 289 288 288 288 288 287 286 286 285 284 283 283 282 281 280 280 279 278 278 278 277 277 276 276 276 275 275
303 303 303 302 302 302 301 301 301 301 301 301 301 301 301 301 301 301 301 301 301 301 301 301 301 301 301 301 301 301 301 301 301 300 300 299 299 299 298 298 298 298 298 298 297 297 297 297 297 297 297 296 296 295 294 293 292 291 290 290 290 289 289 289 288 287 286 286 285 284 283 283 282 281 280 280 279 279 278 278 278 277 277 276 276 275
303 303 302 302 302 302 302 301 301 301 301 301 301 301 301 301 301 301 301 301 301 301 301 301 301 301 301 301 301 301 301 301 301 301 300 300 300 299 299 299 299 299 299 298 298 298 298 298 298 298 298 297 297 296 294 293 292 292 291 291 291 291 291 290 289 289 288 287 286 285 284 283 283 282 281 281 280 280 280 279 279 278 277 277 276 275
303 302 302 302 302 302 302 302 302 301 301 301 301 301 301 301 301 302 302 301 301 302 302 302 302 302 302 302 302 302 302 302 301 301 301 300 300 300 300 300 300 300 299 299 299 299 299 299 299 299 299 298 297 296 295 294 293 293 292 292 292 292 292 291 290 290 289 288 287 286 285 284 284 283 283 282 282 281 281 280 279 279 278 277 276 276
303 303 303 303 302 302 302 302 302 302 302 302 302 302 302 302 302 302 302 302 302 302 303 303 303 303 303 303 303 302 302 302 302 301 301 301 300 300 300 300 300 300 300 300 300 300 300 300 300 300 299 298 297 296 295 295 294 294 294 294 294 294 293 292 291 290 289 288 287 287 286 286 285 285 284 284 283 282 282 281 280 279 278 277 277 276
303 303 303 303 303 303 302 302 302 302 302 302 302 302 302 303 303 303 303 303 303 304 304 304 304 303 303 303 303 303 302 302 302 301 301 301 301 300 300 301 301 301 301 301 301 301 301 301 301 300 299 298 297 296 296 295 295 295 295 295 295 294 294 293 292 291 290 289 288 287 287 287 286 286 285 285 284 283 282 281 280 279 279 278 277 276
303 303 303 303 303 303 302 302 302 303 303 303 303 303 304 304 304 304 304 304 304 304 304 304 304 304 303 303 303 302 302 302 302 302 301 301 301 301 301 301 301 301 301 301 301 301 302 302 301 300 299 299 298 297 296 295 295 295 295 295 295 295 294 293 292 291 290 289 289 288 288 288 287 287 286 285 284 283 282 281 281 280 279 278 278 277
304 304 304 303 303 303 303 303 303 303 303 304 304 304 304 305 305 305 305 305 305 305 305 305 304 304 303 303 303 302 302 302 302 301 301 301 301 301 302 302 302 302 302 302 302 302 302 302 301 300 300 299 298 297 296 296 296 296 296 296 296 295 294 293 292 291 290 289 289 289 289 288 288 287 286 285 284 283 283 282 281 280 280 279 278 278
304 304 304 303 303 303 303 303 304 304 304 304 305 305 305 305 305 305 305 305 305 305 305 304 304 303 303 303 302 302 302 302 302 302 301 301 301 302 302 302 302 302 302 302 302 302 302 302 301 300 300 299 298 297 296 296 296 296 296 296 296 295 294 293 292 291 290 290 290 289 289 288 288 287 286 285 285 284 283 283 282 281 280 280 279 278
304 304 304 304 304 304 304 304 304 304 305 305 305 306 306 306 306 306 305 305 305 305 305 304 304 303 303 303 302 302 302 302 302 302 301 301 302 302 302 302 302 302 302 303 303 303 302 302 301 300 300 299 298 297 297 297 297 297 297 296 296 295 294 292 292 291 291 290 290 290 289 289 288 287 286 286 285 284 284 283 282 282 281 280 280 279
304 304 304 304 304 304 305 305 305 305 305 306 306 306 306 306 306 306 306 305 305 305 305 304 304 303 303 303 302 302 302 302 302 302 302 302 302 302 303 302 302 302 303 303 303 302 302 301 301 300 300 298 298 297 297 297 297 297 297 296 295 294 293 292 292 291 291 291 291 290 290 289 288 287 287 286 286 285 285 284 283 283 282 282 281 280
305 304 304 304 304 305 305 305 305 305 305 306 306 306 306 306 306 306 306 306 305 305 305 304 304 303 303 303 302 302 302 302 302 302 302 302 302 303 303 302 303 303 303 303 303 302 302 301 301 300 299 298 298 297 297 297 297 297 296 296 295 294 293 292 292 292 291 291 291 290 290 289 289 288 288 287 286 286 285 285 284 284 283 282 282 281
305 304 304 304 305 305 305 305 305 306 306 306 306 306 306 306 306 306 306 306 305 305 305 304 304 303 303 303 302 303 303 302 302 302 302 302 303 303 303 303 303 303 304 303 302 302 301 301 301 300 299 298 298 297 297 297 297 297 296 296 295 294 293 293 292 292 292 292 291 291 290 290 289 289 288 288 287 287 286 286 285 285 284 283 283 282
305 305 305 305 305 305 306 306 306 306 306 307 307 307 307 307 306 306 306 306 305 305 305 304 304 303 303 303 303 303 303 303 303 303 303 303 303 303 303 303 304 304 304 303 302 302 302 301 301 300 299 298 298 297 297 297 297 297 296 296 295 294 293 293 293 293 292 292 292 292 291 291 290 290 289 289 288 288 287 287 286 286 285 284 283 283
305 305 305 306 306 306 306 306 306 307 307 307 307 307 307 307 307 306 306 306 305 305 304 304 304 303 303 303 303 303 303 303 303 303 303 303 303 303 304 304 304 304 304 303 302 302 302 301 301 300 299 299 298 298 297 297 297 297 296 295 295 294 294 293 293 293 293 293 293 292 292 292 291 291 290 290 289 289 288 288 287 287 286 285 284 284
306 306 306 307 307 307 307 307 307 307 307 307 308 307 307 307 307 306 306 306 305 305 304 304 304 304 304 303 303 304 304 304 304 304 304 304 303 304 304 305 305 304 304 303 302 302 302 302 301 300 299 299 298 298 297 297 297 297 296 296 295 294 294 294 294 294 294 294 293 293 293 292 292 291 291 291 290 290 289 289 288 287 287 286 285 284
307 307 307 308 308 308 308 308 308 308 308 308 308 308 308 307 307 307 306 306 305 305 305 304 304 304 304 304 304 304 305 305 304 304 304 304 304 304 305 305 305 304 303 303 302 302 302 302 301 301 300 299 298 298 297 297 297 297 296 296 295 295 295 294 294 294 294 294 294 293 293 293 293 292 292 291 291 290 290 289 289 288 287 287 286 285
308 308 308 309 309 309 309 309 309 309 309 309 308 308 308 308 307 307 306 306 306 305 305 305 305 305 305 305 305 305 305 305 305 304 304 304 305 305 305 305 305 304 303 303 302 302 302 302 301 301 299 298 298 297 298 297 297 297 296 296 295 295 295 295 295 295 294 294 294 294 294 293 293 292 292 291 291 291 290 290 289 288 288 287 287 286
309 309 309 310 310 310 310 310 310 310 309 309 309 309 308 308 307 307 307 306 306 306 306 305 305 305 305 305 305 305 305 305 305 305 305 305 305 306 306 306 305 304 303 303 302 302 302 302 302 301 299 298 298 297 298 298 297 297 296 296 296 295 295 295 295 295 295 294 294 294 294 293 293 292 292 292 291 291 290 290 289 289 288 288 287 287
310 310 310 310 310 310 310 310 310 310 310 309 309 309 309 308 308 307 307 307 306 306 306 306 306 306 306 306 305 305 305 305 305 305 305 306 306 306 306 306 305 304 303 303 302 302 302 302 302 301 299 298 297 297 298 298 297 297 296 296 296 296 295 295 295 295 295 295 294 294 293 293 293 292 292 292 291 291 290 290 290 289 289 289 288 288
311 311 311 311 311 311 311 310 310 310 310 309 309 309 308 308 308 308 307 307 307 307 307 307 307 306 306 306 306 306 306 306 306 306 306 306 306 306 306 305 305 304 303 303 302 302 303 303 302 301 299 298 297 297 297 297 297 296 296 296 296 296 295 295 295 295 295 295 294 294 293 293 293 292 292 292 291 291 291 291 290 290 289 289 289 289
311 311 311 311 311 311 311 310 310 310 310 309 309 309 309 308 308 308 308 308 308 307 307 307 307 307 307 306 306 306 306 307 307 307 307 307 307 306 306 305 305 304 303 303 302 303 303 303 302 300 299 298 297 297 297 297 297 296 296 295 296 295 295 295 295 295 294 294 294 294 293 293 292 292 292 292 291 291 291 291 291 290 290 290 290 290
312 311 311 311 311 311 311 310 310 310 310 309 309 309 309 309 309 308 308 308 308 308 308 308 307 307 307 307 306 307 307 307 307 308 308 307 307 306 306 305 305 304 303 303 302 303 303 303 302 300 298 298 297 297 297 297 296 296 296 296 295 295 295 295 295 295 294 294 294 293 293 292 292 292 292 292 292 291 291 291 291 291 291 291 291 291
312 312 311 311 311 311 311 311 310 310 310 310 309 309 309 309 309 309 309 309 308 308 308 307 307 307 307 307 307 307 307 308 308 308 308 307 307 306 306 305 305 304 303 302 302 302 302 302 301 300 298 297 297 297 297 297 296 296 296 295 295 295 295 294 294 294 294 294 293 293 292 292 292 292 292 292 292 292 292 292 292 292 292 292 292 292
312 311 311 311 311 311 311 311 311 310 310 310 310 310 309 309 309 309 309 309 308 308 308 307 307 307 307 307 307 307 308 308 309 308 308 307 307 306 306 305 305 304 303 302 302 302 302 301 300 299 298 297 297 296 296 296 296 296 295 295 295 295 295 294 294 293 293 293 293 292 292 292 292 292 292 292 292 292 292 292 292 292 292 292 293 293
312 311 311 311 311 311 311 311 311 310 310 310 310 310 310 310 310 309 309 309 308 308 307 307 307 307 307 307 307 308 308 309 309 308 308 307 306 306 306 305 305 304 303 302 302 302 301 301 300 298 297 296 296 296 296 296 296 296 296 295 295 295 294 294 293 293 293 292 292 292 292 292 292 292 292 292 292 293 292 292 292 292 293 293 294 294
312 312 311 311 311 311 311 311 311 311 310 310 310 310 310 310 310 310 309 309 308 308 307 307 307 307 307 307 308 308 309 309 309 308 307 307 306 306 306 305 305 304 303 302 301 301 301 301 300 299 297 296 296 296 296 296 296 296 296 296 295 295 294 294 293 293 292 292 292 292 292 292 292 292 292 292 293 293 293 292 292 292 293 294 295 296
312 312 312 312 312 312 311 311 311 311 311 311 311 311 311 310 310 310 309 309 308 308 308 307 307 307 308 308 308 308 309 309 309 308 307 306 306 306 306 305 305 304 302 301 301 301 301 300 300 299 298 296 296 296 296 296 296 296 296 296 295 295 294 293 293 293 292 292 292 292 292 292 292 292 292 292 293 292 292 292 291 292 293 294 295 296
312 312 312 312 312 312 311 311 311 311 311 311 311 311 311 310 310 310 309 309 308 308 308 308 308 308 308 308 309 309 309 309 308 307 306 306 306 306 306 305 304 303 302 301 301 300 300 300 300 299 298 297 296 296 296 296 296 296 296 296 295 295 294 293 293 292 292 292 293 292 292 292 292 292 293 293 293 292 291 290 291 291 293 295 296 297
313 313 312 312 312 312 312 311 311 311 311 312 311 311 311 310 310 309 309 309 308 308 308 308 309 309 309 309 309 309 309 309 308 307 306 306 306 306 306 305 304 303 302 301 300 300 300 300 300 299 298 297 296 296 296 296 296 296 296 295 295 294 294 293 293 292 292 293 293 293 293 292 292 293 293 294 293 292 290 289 290 291 293 295 297 298
313 313 313 312 312 312 312 312 312 312 312 312 312 311 311 310 310 309 309 309 309 309 309 309 309 309 309 309 309 309 309 308 307 306 306 306 306 306 306 305 303 302 301 301 300 301 300 300 300 299 298 297 297 296 296 296 296 296 295 295 295 294 294 293 293 292 292 292 292 292 293 292 293 294 295 295 294 291 289 288 289 291 294 296 297 298
314 313 313 313 312 312 312 312 312 313 313 312 312 311 311 310 310 309 309 309 309 309 309 309 309 309 309 309 309 309 308 308 307 306 306 306 306 306 305 304 303 302 301 301 301 301 301 301 300 299 299 298 297 297 297 296 296 296 295 295 295 294 294 293 292 292 292 292 292 292 292 292 293 294 296 296 294 290 288 287 289 292 295 297 298 298
314 314 313 313 313 313 313 313 313 313 313 312 312 311 311 310 310 310 310 310 310 310 310 310 310 310 309 309 309 308 308 307 306 306 306 306 306 306 305 304 303 302 301 301 301 301 301 301 300 300 299 298 298 297 296 296 296 296 295 295 295 295 294 294 293 292 291 291 291 291 291 291 293 295 297 296 293 289 286 287 289 293 296 298 298 298
315 314 314 313 313 313 313 314 314 313 313 312 312 311 311 310 310 310 310 310 310 310 310 310 310 309 309 309 308 307 307 306 306 306 306 307 306 306 305 304 302 302 301 301 301 302 301 301 301 300 299 298 297 297 297 296 296 295 295 295 295 295 295 294 293 292 292 291 291 290 290 291 293 295 297 296 291 287 285 287 291 295 298 298 298 297
315 314 314 313 314 314 314 314 314 313 313 312 312 311 311 311 310 310 310 310 310 310 310 310 309 309 309 308 307 307 306 306 306 307 307 307 306 306 304 303 302 302 302 302 302 301 301 301 301 300 299 298 297 297 297 297 296 296 295 295 295 295 294 294 294 293 293 292 291 290 290 291 293 296 296 293 288 285 285 289 293 297 298 298 297 296
315 314 314 314 314 314 314 314 314 313 313 312 311 311 311 311 311 311 310 310 310 310 310 309 309 309 308 308 307 307 306 306 307 307 307 307 306 305 304 303 303 302 302 302 302 302 302 301 301 301 299 298 298 297 297 296 296 296 295 295 294 294 294 293 293 293 293 293 292 291 291 292 294 295 294 289 285 284 286 291 296 298 298 296 295 294
315 314 314 314 314 315 315 314 314 313 313 312 312 311 311 311 311 311 310 310 310 310 309 309 309 308 308 307 307 306 306 307 307 307 307 307 306 305 304 304 303 303 303 302 302 302 302 302 301 301 300 299 298 298 297 296 296 295 295 295 294 293 293 293 293 293 293 293 293 292 292 293 294 293 290 285 283 284 289 294 298 298 296 294 293 292
314 314 314 314 315 315 315 315 314 313 313 312 312 312 312 312 311 311 311 310 310 310 309 309 308 308 307 307 307 307 307 307 307 307 307 307 306 305 305 304 304 303 303 303 302 302 302 302 302 301 301 300 299 299 298 297 296 295 294 294 293 293 292 291 292 292 293 294 294 294 294 295 294 290 286 283 283 286 292 296 298 296 293 291 290 289
314 314 314 315 315 315 315 314 314 313 313 312 312 312 312 312 312 311 311 310 310 310 309 309 308 308 308 307 307 307 308 308 308 307 307 307 306 306 305 305 304 304 303 303 303 302 302 303 303 302 302 301 301 299 298 297 296 295 294 294 293 292 291 290 291 292 293 294 295 296 295 295 292 287 283 282 284 288 294 297 296 293 290 288 286 285
314 314 315 315 316 316 315 315 314 313 313 313 313 313 313 313 312 312 311 311 310 310 310 309 309 309 308 308 308 308 308 308 308 308 307 307 307 307 306 306 305 304 304 303 303 303 303 303 303 303 303 302 302 301 299 298 296 295 294 293 292 291 290 290 291 291 293 295 296 296 296 293 289 284 281 282 285 290 295 296 293 289 286 284 282 283
315 315 315 316 316 316 315 315 314 314 314 314 314 314 314 313 313 312 312 311 311 311 310 310 310 309 309 309 309 309 309 309 308 308 308 308 308 308 307 306 306 305 304 304 304 304 303 303 303 304 303 303 303 302 300 299 297 296 295 293 292 291 291 291 291 293 294 296 297 297 295 291 286 282 280 282 286 291 294 291 288 283 281 279 280 281
315 316 316 316 316 316 316 315 315 314 314 315 315 314 314 314 313 313 312 312 312 311 311 311 311 310 310 310 310 310 309 309 309 309 309 309 309 308 308 307 307 306 305 305 304 304 304 304 304 304 304 304 304 303 302 300 298 297 295 294 293 292 292 292 293 295 296 297 298 296 292 287 282 279 279 282 286 290 289 286 282 279 277 277 278 282
316 316 317 317 317 316 316 316 315 315 315 316 316 315 315 314 314 313 313 313 312 312 312 312 311 311 311 311 311 310 310 310 309 309 310 310 309 309 309 308 307 307 306 305 305 304 304 304 304 305 305 305 304 304 303 302 299 298 296 295 294 294 294 295 296 297 298 298 297 294 288 282 278 276 278 281 284 286 283 280 277 275 274 275 278 282
317 317 317 317 317 317 316 316 316 316 316 316 316 316 315 315 314 314 314 314 313 313 313 312 312 312 312 312 312 311 311 310 310 310 310 310 310 310 309 309 308 307 307 306 305 305 305 305 305 305 305 306 305 304 304 302 301 299 298 297 297 297 297 299 300 300 300 299 294 289 282 276 274 274 276 280 281 280 278 275 273 272 273 276 279 281
317 317 318 318 317 317 317 317 317 317 317 317 316 316 316 315 315 315 314 314 314 314 313 313 313 313 313 313 312 312 312 312 312 311 311 311 310 310 309 309 309 308 308 307 307 306 306 306 306 306 306 306 306 305 304 303 301 300 299 299 300 300 302 302 302 303 300 296 289 282 276 272 271 273 274 276 276 275 274 272 271 272 273 275 276 277
318 318 318 318 318 317 317 317 317 317 317 317 317 316 316 316 315 315 315 315 315 314 314 314 314 314 314 314 313 313 313 313 312 312 311 311 311 310 310 309 309 309 308 308 308 308 307 307 307 306 306 306 306 305 304 303 302 301 301 302 302 303 304 305 304 302 297 289 281 273 269 268 269 270 272 273 273 272 271 270 269 270 271 271 270 269
Height
10416 10411 10408 10404 10400 10395 10391 10387 10384 10380 10375 10371 10368 10364 10361 10357 10353 10349 10347 10344 10341 10338 10334 10331 10328 10324 10321 10317 10313 10310 10308 10304 10301 10298 10295 10291 10288 10285 10282 10279 10276 10273 10271 10268 10266 10264 10262 10259 10257 10255 10253 10250 10248 10244 10242 10239 10236 10232 10229 10225 10222 10219 10216 10214 10212 10211 10209 10207 10206 10203 10201 10198 10195 10193 10191 10188 10186 10185 10183 10182 10181 10180 10179 10179 10178 10177
10409 10405 10401 10398 10393 10389 10384 10379 10376 10373 10369 10365 10361 10357 10353 10349 10345 10341 10338 10335 10332 10329 10326 10322 10318 10315 10311 10308 10304 10301 10298 10295 10292 10289 10286 10282 10278 10275 10272 10269 10266 10263 10261 10258 10256 10254 10251 10249 10247 10244 10242 10239 10237 10234 10231 10227 10224 10221 10217 10214 10210 10207 10206 10204 10202 10201 10199 10197 10195 10192 10189 10187 10184 10182 10180 10178 10176 10175 10173 10172 10171 10169 10169 10168 10168 10167
10403 10398 10394 10391 10387 10383 10378 10373 10369 10366 10363 10359 10355 10351 10347 10343 10338 10334 10331 10328 10324 10320 10317 10314 10310 10306 10303 10299 10296 10293 10289 10286 10283 10279 10276 10272 10268 10265 10262 10259 10256 10253 10251 10248 10246 10243 10241 10239 10236 10234 10231 10229 10226 10223 10220 10216 10212 10209 10205 10202 10199 10196 10195 10194 10192 10191 10189 10187 10184 10181 10179 10176 10174 10172 10171 10169 10167 10165 10164 10162 10161 10159 10159 10158 10158 10157
10396 10392 10388 10384 10380 10376 10372 10368 10363 10359 10356 10353 10349 10345 10341 10336 10333 10328 10324 10321 10317 10313 10308 10305 10301 10298 10294 10290 10287 10284 10281 10278 10274 10270 10266 10263 10259 10255 10251 10248 10246 10243 10240 10237 10235 10233 10231 10228 10226 10224 10221 10218 10216 10212 10209 10205 10201 10197 10193 10190 10187 10186 10185 10184 10182 10181 10179 10176 10174 10171 10169 10167 10165 10163 10161 10159 10157 10156 10154 10152 10151 10150 10149 10149 10149 10148
10390 10386 10382 10378 10374 10369 10365 10361 10357 10353 10350 10347 10343 10339 10334 10330 10326 10322 10318 10314 10310 10306 10301 10297 10293 10289 10286 10282 10278 10275 10272 10269 10265 10261 10257 10253 10249 10245 10241 10238 10235 10232 10229 10227 10225 10222 10220 10218 10216 10213 10211 10207 10204 10201 10197 10194 10189 10185 10182 10179 10177 10176 10176 10174 10173 10171 10169 10166 10164 10161 10160 10157 10156 10154 10152 10150 10149 10147 10146 10144 10143 10142 10141 10141 10140 10140
10384 10380 10376 10372 10368 10364 10359 10354 10350 10346 10344 10340 10337 10333 10329 10324 10320 10316 10312 10308 10303 10299 10294 10290 10286 10282 10278 10274 10270 10267 10264 10260 10256 10252 10248 10243 10239 10234 10231 10228 10225 10222 10219 10217 10214 10212 10210 10207 10205 10202 10200 10197 10194 10191 10186 10182 10177 10174 10171 10169 10168 10167 10167 10165 10163 10161 10159 10156 10154 10152 10150 10148 10146 10144 10143 10141 10140 10139 10138 10137 10136 10134 10134 10132 10132 10131
10377 10373 10370 10366 10361 10358 10353 10349 10344 10340 10337 10333 10330 10326 10322 10318 10314 10311 10306 10301 10297 10293 10288 10283 10279 10274 10270 10266 10261 10258 10255 10251 10248 10243 10237 10233 10229 10224 10221 10217 10214 10212 10209 10206 10204 10202 10199 10197 10195 10192 10190 10187 10183 10179 10175 10171 10166 10163 10161 10160 10159 10159 10157 10156 10154 10151 10149 10147 10144 10142 10141 10139 10137 10136 10134 10133 10132 10131 10130 10129 10127 10126 10126 10124 10124 10123
10371 10366 10363 10359 10355 10350 10346 10341 10338 10334 10330 10326 10323 10319 10315 10311 10308 10304 10301 10296 10291 10286 10281 10277 10272 10267 10263 10258 10253 10249 10245 10241 10237 10232 10227 10222 10218 10214 10211 10207 10204 10201 10199 10196 10194 10191 10189 10187 10185 10182 10180 10177 10173 10169 10164 10160 10156 10153 10152 10151 10151 10150 10149 10147 10144 10142 10139 10137 10136 10134 10132 10130 10128 10127 10126 10125 10124 10123 10122 10121 10120 10119 10118 10117 10116 10115
10364 10360 10356 10352 10348 10344 10339 10333 10329 10326 10323 10319 10316 10312 10309 10304 10300 10297 10294 10289 10285 10280 10276 10271 10264 10259 10253 10248 10244 10241 10236 10231 10227 10222 10218 10212 10207 10204 10201 10198 10195 10192 10189 10186 10184 10182 10180 10178 10176 10174 10171 10167 10163 10158 10154 10150 10147 10144 10143 10142 10142 10141 10140 10137 10136 10133 10131 10129 10127 10125 10123 10122 10120 10119 10119 10117 10117 10116 10115 10114 10112 10112 10111 10109 10109 10107
10357 10353 10349 10344 10341 10337 10333 10327 10322 10318 10315 10311 10308 10305 10303 10299 10294 10289 10284 10281 10277 10273 10269 10264 10258 10251 10244 10238 10234 10231 10227 10222 10217 10212 10208 10203 10199 10195 10192 10189 10186 10183 10180 10177 10174 10172 10171 10169 10167 10164 10161 10157 10153 10149 10145 10141 10138 10136 10136 10135 10134 10133 10131 10129 10127 10124 10122 10121 10119 10117 10116 10114 10113 10112 10112 10111 10110 10109 10108 10107 10106 10104 10104 10102 10102 10101
10349 10346 10342 10338 10333 10328 10324 10320 10316 10311 10308 10304 10299 10296 10294 10291 10288 10284 10278 10271 10267 10263 10259 10255 10250 10244 10237 10230 10224 10220 10217 10214 10209 10203 10198 10193 10189 10186 10183 10180 10177 10174 10171 10168 10166 10164 10162 10161 10158 10156 10152 10149 10144 10141 10136 10133 10131 10129 10128 10127 10127 10126 10124 10121 10119 10117 10115 10113 10111 10110 10109 10107 10107 10106 10105 10104 10103 10102 10101 10100 10099 10098 10097 10096 10095 10094
10342 10338 10334 10330 10325 10321 10316 10312 10308 10304 10301 10297 10293 10288 10284 10281 10279 10276 10270 10264 10259 10254 10251 10246 10241 10236 10230 10224 10217 10212 10208 10204 10200 10194 10189 10184 10180 10177 10174 10172 10169 10166 10162 10160 10157 10156 10154 10152 10150 10147 10144 10140 10136 10132 10129 10126 10124 10122 10121 10121 10120 10118 10116 10114 10112 10109 10107 10106 10104 10103 10102 10102 10101 10100 10099 10098 10097 10096 10094 10094 10092 10092 10091 10090 10089 10089
10334 10331 10327 10323 10318 10313 10309 10304 10300 10296 10292 10289 10285 10281 10276 10271 10268 10265 10261 10256 10251 10248 10243 10238 10232 10226 10221 10215 10210 10205 10201 10196 10192 10186 10181 10176 10172 10169 10167 10164 10161 10157 10155 10152 10150 10148 10147 10144 10141 10139 10136 10132 10128 10124 10121 10119 10117 10116 10116 10114 10113 10111 10109 10107 10105 10103 10101 10100 10099 10097 10097 10096 10095 10094 10093 10092 10091 10089 10089 10087 10087 10086 10085 10086 10085 10084
10326 10323 10318 10314 10309 10305 10301 10297 10293 10288 10284 10280 10277 10273 10269 10264 10260 10256 10252 10247 10243 10239 10236 10230 10224 10217 10212 10206 10201 10197 10192 10189 10184 10179 10174 10168 10164 10162 10160 10156 10153 10150 10148 10145 10142 10141 10139 10137 10134 10131 10128 10124 10121 10117 10114 10112 10111 10111 10109 10108 10107 10105 10103 10101 10099 10097 10095 10094 10093 10092 10091 10091 10089 10088 10087 10086 10085 10084 10083 10082 10081 10081 10080 10080 10079 10077
10319 10314 10310 10306 10301 10297 10293 10289 10285 10280 10276 10272 10269 10266 10261 10256 10251 10248 10244 10239 10234 10229 10226 10221 10215 10209 10204 10199 10194 10189 10185 10180 10176 10171 10166 10161 10157 10154 10153 10150 10146 10143 10141 10139 10136 10134 10132 10130 10127 10124 10121 10117 10113 10110 10108 10107 10106 10104 10103 10102 10101 10099 10097 10094 10092 10091 10090 10089 10088 10087 10086 10085 10084 10082 10082 10081 10079 10079 10077 10077 10076 10075 10075 10075 10074 10073
10311 10307 10303 10298 10294 10289 10286 10282 10278 10273 10269 10265 10261 10258 10254 10248 10243 10238 10234 10230 10225 10221 10216 10212 10206 10200 10194 10189 10186 10183 10179 10173 10167 10163 10159 10154 10149 10147 10146 10143 10139 10136 10135 10132 10130 10127 10126 10123 10121 10118 10114 10111 10107 10104 10102 10101 10100 10099 10097 10096 10095 10093 10091 10089 10087 10086 10084 10084 10082 10082 10081 10080 10079 10077 10076 10075 10074 10073 10072 10071 10071 10070 10069 10069 10068 10068
10304 10299 10295 10291 10287 10283 10279 10274 10270 10266 10262 10258 10255 10251 10247 10242 10236 10231 10226 10221 10217 10212 10207 10203 10199 10193 10186 10180 10176 10174 10172 10167 10161 10156 10152 10147 10143 10141 10139 10136 10133 10130 10128 10126 10124 10121 10119 10117 10114 10112 10108 10104 10101 10099 10097 10096 10094 10093 10092 10091 10089 10087 10085 10083 10082 10081 10079 10079 10078 10077 10076 10075 10074 10072 10071 10070 10069 10068 10067 10067 10066 10065 10064 10064 10063 10062
10297 10293 10288 10284 10279 10276 10273 10268 10263 10259 10254 10251 10248 10243 10239 10234 10229 10224 10219 10213 10208 10204 10198 10194 10189 10185 10180 10174 10168 10164 10164 10161 10155 10149 10146 10141 10137 10134 10132 10130 10127 10124 10122 10119 10117 10115 10113 10111 10109 10106 10102 10099 10096 10094 10092 10091 10089 10088 10087 10085 10084 10082 10080 10078 10077 10076 10075 10074 10073 10072 10071 10070 10069 10067 10066 10066 10064 10064 10063 10062 10061 10061 10060 10059 10058 10057
10290 10286 10282 10278 10273 10269 10265 10261 10257 10252 10248 10243 10239 10235 10230 10225 10220 10216 10210 10205 10200 10195 10191 10186 10180 10176 10172 10167 10161 10157 10156 10153 10149 10144 10139 10135 10131 10127 10126 10123 10121 10119 10116 10113 10111 10109 10107 10105 10103 10100 10096 10093 10091 10089 10087 10086 10084 10083 10082 10080 10078 10077 10075 10074 10072 10071 10070 10069 10068 10067 10066 10065 10064 10063 10062 10061 10060 10059 10058 10057 10057 10056 10055 10054 10054 10053
10283 10279 10275 10271 10267 10261 10256 10252 10248 10244 10241 10236 10232 10227 10222 10217 10212 10207 10202 10197 10192 10187 10182 10178 10173 10168 10164 10159 10154 10150 10148 10146 10142 10137 10133 10129 10124 10121 10119 10117 10115 10112 10109 10107 10104 10102 10101 10099 10097 10094 10091 10088 10086 10084 10082 10081 10079 10078 10077 10075 10073 10072 10071 10069 10068 10067 10066 10065 10064 10062 10062 10061 10059 10058 10057 10056 10056 10055 10054 10053 10052 10051 10051 10050 10049 10049
10275 10271 10267 10264 10259 10254 10249 10244 10239 10236 10232 10227 10223 10218 10213 10209 10204 10199 10194 10189 10184 10179 10174 10170 10165 10161 10156 10151 10146 10142 10141 10138 10134 10130 10126 10122 10119 10116 10114 10112 10109 10106 10103 10101 10099 10097 10096 10094 10092 10089 10086 10083 10081 10079 10077 10076 10075 10074 10072 10070 10069 10067 10066 10065 10064 10062 10061 10061 10059 10059 10057 10056 10055 10054 10053 10052 10052 10051 10050 10049 10048 10047 10046 10046 10045 10044
10268 10263 10258 10254 10251 10246 10241 10236 10231 10226 10222 10218 10214 10209 10204 10199 10195 10189 10184 10180 10175 10170 10166 10161 10157 10153 10149 10144 10139 10136 10134 10131 10128 10124 10120 10116 10112 10110 10108 10106 10104 10101 10097 10095 10093 10092 10091 10089 10087 10084 10081 10078 10076 10074 10073 10072 10071 10069 10067 10066 10064 10063 10062 10061 10059 10058 10057 10056 10056 10054 10053 10052 10051 10051 10049 10049 10047 10047 10046 10045 10044 10043 10042 10042 10041 10040
10259 10254 10250 10245 10241 10236 10231 10226 10221 10216 10211 10207 10204 10199 10195 10191 10186 10181 10176 10171 10167 10162 10158 10154 10150 10146 10142 10138 10134 10130 10127 10125 10122 10118 10115 10111 10107 10105 10103 10101 10098 10095 10092 10089 10087 10086 10086 10084 10082 10079 10076 10073 10071 10069 10069 10067 10066 10064 10063 10061 10060 10059 10057 10056 10056 10054 10054 10052 10051 10051 10049 10049 10047 10047 10046 10045 10044 10042 10042 10041 10040 10039 10039 10038 10037 10036
10249 10245 10240 10236 10231 10226 10221 10216 10211 10206 10201 10196 10192 10189 10185 10181 10177 10173 10169 10164 10159 10155 10151 10147 10142 10139 10135 10131 10127 10124 10121 10119 10116 10112 10109 10106 10103 10100 10098 10096 10092 10089 10087 10084 10082 10081 10081 10079 10077 10075 10071 10069 10067 10065 10064 10063 10062 10061 10059 10057 10056 10055 10054 10052 10052 10051 10050 10049 10048 10047 10046 10045 10044 10043 10042 10041 10040 10039 10038 10037 10037 10036 10035 10034 10034 10033
10241 10236 10231 10226 10222 10217 10212 10207 10202 10197 10192 10187 10183 10179 10176 10172 10168 10164 10160 10156 10151 10146 10142 10139 10135 10131 10127 10124 10120 10117 10115 10113 10111 10107 10104 10101 10098 10096 10093 10091 10088 10085 10082 10079 10078 10077 10076 10075 10073 10070 10067 10064 10062 10061 10060 10059 10058 10056 10055 10053 10052 10051 10050 10049 10048 10047 10046 10045 10044 10044 10042 10042 10041 10039 10039 10037 10037 10036 10035 10034 10033 10032 10032 10031 10030 10029
10232 10227 10223 10218 10214 10209 10204 10200 10195 10190 10186 10181 10176 10172 10168 10164 10160 10156 10151 10147 10143 10139 10134 10131 10127 10124 10121 10117 10114 10111 10109 10107 10104 10102 10099 10096 10093 10091 10089 10086 10083 10080 10077 10075 10073 10072 10072 10071 10069 10066 10062 10060 10058 10057 10056 10056 10054 10052 10051 10050 10049 10047 10046 10046 10044 10043 10042 10042 10041 10040 10039 10038 10037 10036 10036 10034 10034 10032 10032 10031 10030 10029 10029 10027 10027 10026
10222 10218 10214 10209 10206 10201 10197 10192 10187 10183 10178 10173 10168 10164 10160 10156 10152 10148 10144 10141 10136 10132 10127 10124 10121 10117 10114 10111 10108 10105 10103 10101 10099 10096 10094 10091 10088 10086 10084 10081 10079 10076 10072 10070 10069 10068 10067 10067 10064 10061 10058 10056 10054 10053 10052 10052 10051 10049 10047 10046 10046 10044 10043 10042 10041 10040 10039 10039 10037 10037 10036 10035 10034 10033 10032 10031 10031 10029 10029 10028 10027 10026 10026 10025 10024 10023
10214 10209 10204 10200 10196 10192 10188 10183 10179 10174 10170 10165 10160 10156 10152 10149 10144 10141 10137 10134 10131 10126 10121 10118 10114 10111 10108 10105 10102 10099 10097 10095 10093 10091 10089 10086 10084 10081 10079 10077 10074 10072 10069 10066 10064 10064 10064 10062 10061 10057 10054 10051 10050 10049 10049 10048 10047 10046 10044 10043 10042 10041 10040 10039 10038 10037 10036 10035 10034 10034 10033 10032 10031 10030 10029 10029 10027 10027 10026 10025 10024 10024 10022 10022 10021 10021
10209 10202 10197 10192 10187 10184 10179 10175 10171 10166 10162 10157 10153 10149 10145 10141 10137 10133 10130 10127 10124 10119 10116 10112 10109 10105 10102 10099 10097 10094 10092 10090 10088 10086 10083 10081 10079 10077 10075 10072 10071 10067 10065 10062 10060 10059 10059 10059 10057 10054 10051 10048 10046 10046 10045 10044 10044 10042 10041 10040 10039 10038 10037 10036 10035 10034 10033 10032 10031 10031 10030 10029 10028 10027 10027 10026 10025 10024 10023 10022 10021 10021 10020 10019 10019 10018
10202 10196 10190 10185 10180 10176 10171 10167 10162 10158 10154 10150 10146 10142 10138 10134 10131 10127 10124 10121 10117 10114 10110 10106 10103 10100 10097 10094 10092 10089 10087 10086 10083 10081 10078 10076 10074 10072 10070 10068 10066 10064 10061 10058 10056 10054 10054 10055 10054 10051 10048 10045 10043 10042 10041 10041 10040 10039 10038 10037 10036 10035 10034 10033 10032 10031 10030 10029 10028 10027 10027 10026 10026 10025 10024 10023 10022 10021 10021 10020 10019 10018 10017 10017 10016 10016
10195 10189 10184 10178 10174 10169 10164 10160 10155 10151 10147 10143 10139 10136 10132 10128 10124 10121 10117 10114 10111 10108 10104 10101 10098 10096 10092 10089 10087 10084 10083 10081 10079 10076 10074 10071 10069 10067 10066 10064 10062 10060 10057 10055 10052 10051 10050 10050 10050 10049 10046 10042 10040 10038 10037 10037 10036 10036 10035 10034 10033 10032 10031 10030 10029 10028 10027 10026 10026 10025 10024 10024 10023 10022 10021 10021 10020 10019 10018 10017 10016 10016 10015 10014 10014 10014
10188 10182 10177 10172 10167 10162 10158 10153 10149 10144 10140 10136 10132 10129 10126 10122 10118 10115 10111 10108 10105 10102 10099 10096 10094 10091 10088 10085 10082 10080 10078 10077 10074 10072 10069 10067 10064 10063 10061 10060 10057 10056 10054 10051 10049 10047 10046 10045 10045 10044 10043 10040 10037 10036 10034 10034 10033 10032 10032 10031 10030 10029 10028 10027 10026 10025 10024 10023 10022 10022 10022 10021 10021 10020 10019 10019 10017 10017 10016 10015 10014 10014 10013 10012 10012 10011
10181 10176 10171 10166 10161 10156 10152 10147 10142 10138 10134 10131 10127 10123 10119 10116 10112 10109 10106 10102 10099 10096 10094 10091 10088 10086 10083 10081 10078 10076 10074 10072 10070 10067 10065 10062 10061 10059 10057 10056 10054 10052 10049 10047 10046 10044 10043 10042 10041 10040 10039 10037 10035 10033 10031 10031 10030 10029 10029 10028 10027 10026 10026 10024 10023 10022 10021 10021 10020 10019 10019 10019 10018 10017 10017 10016 10016 10015 10014 10012 10012 10011 10011 10011 10010 10010
10174 10169 10164 10159 10154 10150 10146 10141 10137 10132 10129 10125 10121 10117 10114 10110 10107 10103 10100 10097 10094 10091 10088 10086 10083 10081 10078 10076 10074 10072 10070 10068 10066 10063 10061 10059 10057 10055 10054 10052 10050 10047 10046 10044 10042 10041 10040 10039 10037 10036 10036 10034 10032 10031 10029 10028 10027 10026 10026 10025 10024 10023 10022 10022 10021 10019 10019 10018 10017 10017 10016 10016 10016 10015 10015 10014 10014 10013 10012 10011 10010 10009 10009 10009 10009 10008
10167 10162 10157 10152 10148 10143 10139 10135 10131 10127 10123 10120 10116 10112 10109 10105 10101 10097 10094 10091 10089 10086 10083 10081 10078 10076 10073 10071 10069 10067 10066 10064 10061 10059 10057 10055 10053 10051 10050 10048 10046 10044 10042 10041 10039 10038 10037 10036 10034 10033 10032 10031 10029 10028 10027 10026 10024 10023 10022 10022 10021 10021 10020 10019 10018 10017 10016 10016 10015 10014 10014 10014 10013 10013 10013 10012 10012 10011 10010 10009 10007 10007 10007 10007 10007 10006
10161 10156 10151 10146 10141 10137 10133 10129 10125 10122 10118 10114 10111 10107 10103 10099 10096 10092 10089 10086 10084 10081 10078 10076 10074 10071 10069 10067 10064 10062 10061 10059 10057 10055 10053 10051 10049 10047 10046 10044 10042 10041 10038 10037 10036 10035 10034 10032 10031 10030 10029 10027 10026 10025 10024 10023 10022 10021 10019 10019 10018 10017 10017 10017 10016 10015 10014 10014 10013 10012 10011 10011 10011 10011 10011 10011 10010 10009 10007 10006 10006 10006 10006 10006 10006 10004
10154 10149 10144 10139 10136 10131 10127 10123 10120 10116 10112 10109 10105 10102 10098 10094 10091 10087 10084 10081 10079 10076 10074 10071 10069 10067 10064 10062 10060 10058 10056 10054 10052 10051 10049 10047 10046 10044 10042 10041 10039 10037 10035 10033 10032 10031 10031 10030 10029 10027 10026 10024 10023 10022 10021 10021 10019 10018 10017 10016 10016 10015 10014 10014 10013 10013 10012 10012 10011 10010 10009 10009 10009 10009 10009 10009 10008 10007 10006 10004 10004 10004 10004 10004 10004 10003
10147 10142 10137 10133 10129 10126 10122 10118 10114 10111 10107 10104 10100 10096 10093 10089 10086 10083 10080 10077 10074 10072 10069 10067 10065 10062 10061 10058 10056 10054 10052 10050 10049 10047 10046 10044 10042 10041 10039 10037 10035 10033 10032 10030 10029 10028 10027 10027 10026 10024 10023 10022 10021 10019 10019 10018 10017 10016 10015 10014 10013 10012 10011 10011 10011 10011 10010 10010 10009 10009 10007 10007 10007 10007 10007 10007 10006 10005 10004 10002 10002 10003 10003 10003 10002 10001
10141 10136 10131 10127 10123 10120 10116 10113 10109 10106 10102 10099 10095 10091 10088 10084 10081 10079 10076 10073 10071 10068 10066 10063 10061 10058 10056 10054 10052 10050 10048 10046 10045 10044 10042 10041 10039 10037 10036 10034 10032 10030 10029 10027 10026 10025 10024 10024 10023 10022 10021 10019 10018 10017 10016 10016 10014 10014 10012 10012 10011 10009 10009 10009 10008 10008 10008 10007 10007 10007 10006 10006 10006 10006 10006 10005 10004 10002 10001 10001 10001 10002 10002 10001 10001 9999
10134 10129 10125 10121 10118 10115 10112 10108 10104 10101 10097 10094 10090 10087 10084 10081 10077 10074 10072 10069 10067 10064 10061 10059 10057 10054 10052 10050 10048 10046 10044 10042 10041 10040 10039 10037 10036 10034 10032 10031 10029 10027 10026 10024 10023 10022 10021 10021 10020 10019 10019 10017 10016 10015 10014 10013 10012 10011 10011 10010 10009 10007 10007 10006 10006 10006 10006 10006 10006 10005 10004 10004 10004 10004 10004 10003 10002 10001 10000 10000 10001 10001 10001 10000 9999 9998
10127 10123 10119 10116 10113 10110 10107 10104 10100 10096 10092 10089 10085 10082 10079 10076 10074 10071 10068 10066 10063 10061 10058 10056 10053 10051 10049 10047 10044 10042 10041 10039 10038 10037 10036 10034 10033 10031 10029 10027 10026 10024 10022 10021 10020 10019 10019 10018 10017 10017 10016 10015 10014 10012 10012 10011 10010 10009 10008 10007 10007 10006 10005 10004 10004 10003 10004 10004 10004 10004 10003 10003 10002 10002 10002 10001 9999 9999 9999 9999 10000 10000 9999 9999 9997 9997
10122 10118 10114 10111 10108 10105 10102 10099 10095 10091 10088 10084 10081 10078 10076 10072 10070 10067 10064 10062 10059 10057 10054 10052 10050 10047 10045 10043 10041 10039 10037 10036 10035 10034 10032 10031 10029 10028 10026 10024 10023 10021 10020 10019 10017 10016 10016 10015 10015 10014 10014 10012 10012 10011 10009 10009 10007 10007 10006 10006 10005 10004 10003 10002 10002 10001 10002 10002 10002 10002 10002 10002 10001 10001 10000 9999 9997 9997 9997 9999 9999 9999 9998 9997 9996 9995
10117 10113 10109 10106 10104 10101 10097 10094 10091 10087 10083 10080 10077 10074 10072 10069 10066 10063 10061 10058 10056 10053 10051 10049 10046 10044 10042 10040 10038 10036 10034 10033 10032 10031 10029 10028 10026 10025 10023 10022 10021 10019 10017 10016 10015 10014 10013 10012 10012 10012 10011 10011 10009 10009 10007 10006 10006 10004 10004 10004 10003 10002 10002 10001 10000 10000 10000 10000 10001 10001 10001 10000 10000 9999 9997 9997 9996 9996 9997 9998 9998 9997 9997 9996 9994 9994
10112 10108 10105 10102 10099 10096 10092 10089 10086 10082 10079 10076 10073 10071 10068 10065 10062 10060 10057 10054 10052 10050 10047 10045 10043 10041 10039 10037 10035 10033 10031 10030 10028 10027 10026 10025 10023 10022 10021 10019 10017 10016 10015 10014 10012 10012 10011 10010 10009 10009 10008 10007 10007 10006 10006 10004 10004 10002 10002 10001 10001 10001 10001 9999 9999 9999 9999 9999 9999 9999 9999 9999 9998 9997 9996 9995 9995 9996 9996 9997 9997 9996 9995 9994 9993 9992
10107 10104 10101 10098 10095 10092 10088 10084 10081 10078 10075 10072 10069 10067 10064 10061 10059 10056 10054 10051 10049 10046 10044 10042 10040 10038 10036 10034 10032 10030 10029 10027 10026 10024 10022 10022 10021 10019 10018 10017 10016 10014 10012 10011 10011 10009 10009 10007 10007 10006 10006 10005 10004 10004 10003 10002 10002 10001 10000 10000 9999 9999 9999 9998 9998 9997 9997 9997 9998 9998 9997 9997 9996 9995 9994 9994 9994 9995 9996 9996 9995 9994 9993 9992 9991 9991
10103 10099 10096 10094 10091 10087 10084 10080 10077 10074 10071 10068 10066 10063 10060 10057 10055 10052 10050 10047 10045 10042 10041 10039 10037 10035 10033 10031 10029 10027 10026 10024 10022 10021 10020 10019 10017 10017 10016 10014 10013 10012 10011 10009 10008 10007 10006 10006 10005 10004 10004 10003 10002 10002 10001 10001 10000 9999 9999 9998 9997 9997 9997 9997 9997 9997 9997 9997 9997 9997 9996 9996 9994 9994 9993 9993 9994 9994 9995 9994 9994 9992 9992 9991 9990 9990
10098 10095 10092 10089 10086 10082 10079 10076 10072 10069 10067 10064 10062 10059 10056 10054 10051 10049 10046 10044 10042 10039 10037 10036 10034 10032 10030 10029 10027 10025 10023 10022 10020 10019 10017 10016 10015 10014 10013 10012 10011 10010 10009 10007 10006 10005 10004 10003 10002 10002 10001 10001 10001 10000 9999 9999 9998 9997 9997 9997 9996 9996 9996 9996 9996 9996 9996 9996 9996 9996 9995 9994 9992 9992 9992 9992 9992 9993 9993 9992 9992 9991 9990 9989 9989 9989
10093 10091 10087 10085 10082 10078 10075 10071 10068 10066 10063 10061 10058 10056 10053 10050 10047 10046 10043 10041 10039 10037 10035 10033 10031 10029 10027 10026 10024 10022 10021 10019 10017 10016 10015 10014 10012 10012 10011 10010 10009 10007 10007 10006 10004 10003 10002 10001 10001 10000 9999 9999 9999 9998 9997 9997 9996 9996 9996 9995 9995 9995 9994 9994 9994 9994 9994 9994 9994 9994 9993 9992 9991 9991 9991 9991 9992 9992 9992 9991 9990 9989 9989 9989 9988 9988
10089 10086 10083 10080 10077 10074 10071 10067 10064 10062 10059 10057 10054 10052 10049 10047 10044 10042 10040 10037 10036 10034 10032 10030 10029 10027 10025 10024 10022 10021 10019 10017 10016 10014 10013 10012 10011 10009 10009 10007 10007 10006 10005 10004 10002 10001 10001 9999 9998 9997 9997 9997 9997 9996 9996 9996 9995 9994 9994 9994 9994 9993 9993 9994 9994 9994 9994 9993 9993 9992 9991 9990 9989 9989 9989 9990 9991 9991 9990 9989 9989 9988 9988 9987 9987 9987
10085 10082 10079 10076 10073 10070 10067 10064 10061 10058 10056 10053 10051 10048 10046 10044 10041 10039 10037 10035 10033 10031 10029 10027 10026 10024 10023 10021 10020 10018 10017 10015 10014 10012 10011 10010 10009 10007 10007 10006 10005 10004 10003 10002 10001 10000 9999 9998 9997 9996 9996 9995 9995 9994 9994 9994 9993 9993 9992 9992 9992 9992 9992 9992 9992 9992 9992 9992 9991 9990 9989 9987 9987 9987 9988 9989 9989 9989 9989 9988 9987 9987 9987 9987 9987 9987
10081 10077 10075 10072 10069 10066 10063 10060 10057 10055 10052 10050 10047 10045 10042 10041 10038 10036 10034 10032 10031 10029 10027 10026 10024 10022 10021 10019 10017 10016 10015 10013 10012 10011 10009 10008 10007 10006 10005 10004 10003 10002 10001 10001 9999 9999 9997 9997 9996 9995 9994 9994 9993 9993 9992 9992 9992 9991 9991 9991 9991 9991 9991 9991 9991 9991 9991 9990 9989 9987 9986 9986 9986 9986 9987 9987 9988 9988 9987 9987 9987 9987 9987 9986 9986 9986